TVF701 LFLL-LFPO

Flight info

Callsign TVF701
Flight time 0h 46m
Altitude 28000
Route BUSIL A2 PIBAT
Aircraft B738/M-SDE2E3FGHIRWXY/LB1

Departure

Time 2026-05-05 20:02
Airport Lyon Saint-Exupéry Airport (LFLL)

Arrival

Time 2026-05-05 20:49
Airport Paris-Orly Airport (LFPO)
Time Latitude Longitude Altitude Speed Heading
2026-05-05 19:39 45.71605 5.08211 801 ft 0 kts 194°
2026-05-05 19:49 45.71606 5.08211 801 ft 2 kts 194°
2026-05-05 19:49 45.71629 5.08220 801 ft 4 kts 195°
2026-05-05 19:49 45.71651 5.08229 800 ft 3 kts 194°
2026-05-05 19:50 45.71674 5.08230 800 ft 4 kts 140°
2026-05-05 19:50 45.71685 5.08201 800 ft 4 kts 104°
2026-05-05 19:50 45.71688 5.08186 799 ft 1 kts 105°
2026-05-05 19:52 45.71687 5.08188 799 ft 1 kts 105°
2026-05-05 19:52 45.71677 5.08255 800 ft 14 kts 96°
2026-05-05 19:52 45.71685 5.08423 800 ft 17 kts 79°
2026-05-05 19:53 45.71771 5.08483 801 ft 15 kts 356°
2026-05-05 19:53 45.71875 5.08472 801 ft 15 kts 355°
2026-05-05 19:53 45.71975 5.08459 801 ft 14 kts 354°
2026-05-05 19:53 45.72070 5.08447 802 ft 13 kts 356°
2026-05-05 19:54 45.72180 5.08435 800 ft 20 kts 355°
2026-05-05 19:54 45.72347 5.08413 798 ft 27 kts 354°
2026-05-05 19:54 45.72533 5.08392 795 ft 23 kts 357°
2026-05-05 19:54 45.72676 5.08377 791 ft 22 kts 355°
2026-05-05 19:55 45.72833 5.08354 789 ft 23 kts 355°
2026-05-05 19:55 45.72925 5.08420 789 ft 14 kts 61°
2026-05-05 19:55 45.72945 5.08562 790 ft 15 kts 85°
2026-05-05 19:55 45.72951 5.08654 792 ft 1 kts 84°
2026-05-05 19:56 45.72952 5.08671 792 ft 4 kts 84°
2026-05-05 19:56 45.72956 5.08744 791 ft 8 kts 89°
2026-05-05 19:56 45.72942 5.08797 792 ft 4 kts 146°
2026-05-05 19:56 45.72935 5.08799 792 ft 0 kts 169°
2026-05-05 20:02 45.72925 5.08801 792 ft 3 kts 169°
2026-05-05 20:02 45.72705 5.08836 790 ft 75 kts 175°
2026-05-05 20:02 45.71912 5.08936 843 ft 146 kts 174°
2026-05-05 20:02 45.70873 5.09075 1662 ft 147 kts 175°
2026-05-05 20:03 45.69880 5.09195 2697 ft 143 kts 176°
2026-05-05 20:03 45.68891 5.09319 3603 ft 144 kts 177°
2026-05-05 20:03 45.67901 5.09443 4477 ft 150 kts 178°
2026-05-05 20:03 45.66748 5.09786 4831 ft 194 kts 152°
2026-05-05 20:04 45.65886 5.11427 5227 ft 227 kts 107°
2026-05-05 20:04 45.66042 5.13706 5952 ft 241 kts 64°
2026-05-05 20:04 45.67203 5.15380 6969 ft 242 kts 25°
2026-05-05 20:04 45.68792 5.16215 7962 ft 246 kts 19°
2026-05-05 20:05 45.70414 5.17082 8948 ft 252 kts 20°
2026-05-05 20:05 45.72056 5.18037 9973 ft 257 kts 22°
2026-05-05 20:05 45.73721 5.19042 10966 ft 261 kts 19°
2026-05-05 20:05 45.75477 5.19395 11941 ft 262 kts 349°
2026-05-05 20:06 45.77243 5.18490 12497 ft 284 kts 328°
2026-05-05 20:06 45.79060 5.16989 12790 ft 318 kts 326°
2026-05-05 20:06 45.81006 5.15309 13596 ft 332 kts 326°
2026-05-05 20:06 45.83004 5.13592 14607 ft 337 kts 326°
2026-05-05 20:07 45.85036 5.11866 15697 ft 342 kts 326°
2026-05-05 20:07 45.87102 5.10125 16749 ft 348 kts 327°
2026-05-05 20:07 45.89203 5.08363 17786 ft 353 kts 327°
2026-05-05 20:07 45.91348 5.06565 18711 ft 359 kts 327°
2026-05-05 20:08 45.93516 5.04716 19565 ft 365 kts 326°
2026-05-05 20:08 45.95694 5.02775 20432 ft 371 kts 325°
2026-05-05 20:08 45.97893 5.00784 21324 ft 375 kts 325°
2026-05-05 20:08 46.00097 4.98784 22411 ft 374 kts 325°
2026-05-05 20:09 46.02292 4.96795 23534 ft 372 kts 324°
2026-05-05 20:09 46.04478 4.94816 24414 ft 372 kts 324°
2026-05-05 20:09 46.06667 4.92836 25307 ft 371 kts 324°
2026-05-05 20:09 46.08850 4.90863 26228 ft 369 kts 323°
2026-05-05 20:10 46.11024 4.88897 27142 ft 368 kts 323°
2026-05-05 20:10 46.13208 4.86917 27683 ft 373 kts 322°
2026-05-05 20:10 46.15444 4.84885 27888 ft 389 kts 322°
2026-05-05 20:10 46.17793 4.82745 27895 ft 408 kts 323°
2026-05-05 20:11 46.20248 4.80512 27900 ft 425 kts 323°
2026-05-05 20:11 46.22799 4.78196 27928 ft 440 kts 323°
2026-05-05 20:11 46.25435 4.75803 27896 ft 454 kts 324°
2026-05-05 20:11 46.28144 4.73340 27899 ft 466 kts 324°
2026-05-05 20:12 46.30922 4.70819 27892 ft 476 kts 324°
2026-05-05 20:12 46.33767 4.68277 27887 ft 485 kts 325°
2026-05-05 20:12 46.36660 4.65709 27882 ft 490 kts 325°
2026-05-05 20:12 46.39566 4.63130 27872 ft 488 kts 325°
2026-05-05 20:13 46.42460 4.60555 27880 ft 487 kts 325°
2026-05-05 20:13 46.45343 4.57979 27873 ft 487 kts 325°
2026-05-05 20:13 46.48188 4.55430 27884 ft 486 kts 325°
2026-05-05 20:13 46.51097 4.52817 27891 ft 485 kts 325°
2026-05-05 20:14 46.53959 4.50229 27882 ft 484 kts 325°
2026-05-05 20:14 46.56777 4.47669 27878 ft 484 kts 325°
2026-05-05 20:14 46.59666 4.45040 27881 ft 483 kts 325°
2026-05-05 20:14 46.62511 4.42445 27895 ft 483 kts 325°
2026-05-05 20:15 46.65353 4.39854 27884 ft 482 kts 325°
2026-05-05 20:15 46.68156 4.37295 27871 ft 482 kts 325°
2026-05-05 20:15 46.70996 4.34700 27879 ft 481 kts 325°
2026-05-05 20:15 46.73828 4.32110 27882 ft 481 kts 325°
2026-05-05 20:16 46.76661 4.29516 27882 ft 481 kts 325°
2026-05-05 20:16 46.79490 4.26923 27882 ft 481 kts 325°
2026-05-05 20:16 46.82410 4.24518 27873 ft 484 kts 332°
2026-05-05 20:16 46.85514 4.22605 27882 ft 485 kts 336°
2026-05-05 20:17 46.88674 4.20857 27885 ft 486 kts 337°
2026-05-05 20:17 46.91843 4.19146 27883 ft 486 kts 337°
2026-05-05 20:17 46.95005 4.17411 27874 ft 486 kts 336°
2026-05-05 20:17 46.98158 4.15634 27879 ft 485 kts 336°
2026-05-05 20:18 47.01299 4.13823 27884 ft 485 kts 336°
2026-05-05 20:18 47.04437 4.11987 27882 ft 485 kts 335°
2026-05-05 20:18 47.07565 4.10143 27886 ft 485 kts 335°
2026-05-05 20:18 47.10696 4.08293 27879 ft 485 kts 336°
2026-05-05 20:19 47.13825 4.06442 27873 ft 485 kts 336°
2026-05-05 20:19 47.16958 4.04590 27875 ft 485 kts 336°
2026-05-05 20:19 47.20085 4.02742 27878 ft 485 kts 336°
2026-05-05 20:19 47.23214 4.00891 27873 ft 485 kts 336°
2026-05-05 20:20 47.25286 3.99663 27875 ft 485 kts 336°
2026-05-05 20:20 47.28414 3.97809 27868 ft 485 kts 336°
2026-05-05 20:20 47.31543 3.95951 27874 ft 485 kts 336°
2026-05-05 20:20 47.34666 3.94095 27866 ft 484 kts 337°
2026-05-05 20:21 47.37794 3.92233 27865 ft 484 kts 337°
2026-05-05 20:21 47.40911 3.90376 27864 ft 484 kts 337°
2026-05-05 20:21 47.44032 3.88513 27866 ft 484 kts 336°
2026-05-05 20:21 47.47157 3.86646 27730 ft 485 kts 336°
2026-05-05 20:22 47.50286 3.84772 27156 ft 485 kts 336°
2026-05-05 20:22 47.53409 3.82900 26539 ft 481 kts 336°
2026-05-05 20:22 47.56485 3.81055 25979 ft 473 kts 337°
2026-05-05 20:22 47.59526 3.79228 25289 ft 470 kts 336°
2026-05-05 20:23 47.62549 3.77410 24552 ft 466 kts 336°
2026-05-05 20:23 47.65531 3.75614 23841 ft 460 kts 336°
2026-05-05 20:23 47.68484 3.73833 23090 ft 457 kts 336°
2026-05-05 20:23 47.71412 3.72064 22266 ft 453 kts 336°
2026-05-05 20:24 47.74321 3.70304 21452 ft 449 kts 336°
2026-05-05 20:24 47.77199 3.68561 20673 ft 445 kts 336°
2026-05-05 20:24 47.80052 3.66832 19911 ft 440 kts 336°
2026-05-05 20:24 47.82871 3.65121 19170 ft 436 kts 336°
2026-05-05 20:25 47.85663 3.63424 18448 ft 431 kts 336°
2026-05-05 20:25 47.88418 3.61748 17683 ft 423 kts 336°
2026-05-05 20:25 47.91067 3.60138 16961 ft 399 kts 336°
2026-05-05 20:25 47.93565 3.58618 16298 ft 377 kts 335°
2026-05-05 20:26 47.95931 3.57138 15662 ft 360 kts 331°
2026-05-05 20:26 47.97887 3.54996 15097 ft 343 kts 312°
2026-05-05 20:26 47.99542 3.52458 14577 ft 342 kts 311°
2026-05-05 20:26 48.01193 3.49889 14046 ft 344 kts 311°
2026-05-05 20:27 48.02855 3.47307 13513 ft 345 kts 311°
2026-05-05 20:27 48.04523 3.44728 12931 ft 344 kts 311°
2026-05-05 20:27 48.06182 3.42177 12363 ft 340 kts 311°
2026-05-05 20:27 48.07817 3.39669 11802 ft 335 kts 311°
2026-05-05 20:28 48.09427 3.37201 11413 ft 326 kts 311°
2026-05-05 20:28 48.10994 3.34800 11034 ft 320 kts 311°
2026-05-05 20:28 48.12540 3.32426 10672 ft 318 kts 311°
2026-05-05 20:28 48.14079 3.30060 10295 ft 316 kts 311°
2026-05-05 20:29 48.15611 3.27705 9943 ft 315 kts 311°
2026-05-05 20:29 48.17134 3.25361 9861 ft 316 kts 311°
2026-05-05 20:29 48.18610 3.22909 9830 ft 315 kts 301°
2026-05-05 20:29 48.19489 3.20002 9837 ft 310 kts 285°
2026-05-05 20:30 48.20089 3.16857 9826 ft 310 kts 283°
2026-05-05 20:30 48.20632 3.13782 9825 ft 309 kts 282°
2026-05-05 20:30 48.21174 3.10664 9823 ft 308 kts 282°
2026-05-05 20:30 48.21710 3.07553 9830 ft 308 kts 282°
2026-05-05 20:31 48.22244 3.04446 9832 ft 308 kts 282°
2026-05-05 20:31 48.22776 3.01336 9830 ft 308 kts 282°
2026-05-05 20:31 48.23307 2.98220 9832 ft 309 kts 282°
2026-05-05 20:31 48.23824 2.95092 9831 ft 309 kts 282°
2026-05-05 20:32 48.24334 2.91953 9835 ft 310 kts 282°
2026-05-05 20:32 48.24841 2.88809 9838 ft 311 kts 282°
2026-05-05 20:32 48.25347 2.85657 9834 ft 311 kts 282°
2026-05-05 20:32 48.25852 2.82501 9835 ft 311 kts 282°
2026-05-05 20:33 48.26357 2.79341 9834 ft 311 kts 282°
2026-05-05 20:33 48.26860 2.76188 9832 ft 311 kts 282°
2026-05-05 20:33 48.27362 2.73035 9835 ft 310 kts 282°
2026-05-05 20:33 48.27864 2.69880 9832 ft 310 kts 282°
2026-05-05 20:34 48.28364 2.66749 9828 ft 304 kts 282°
2026-05-05 20:34 48.28847 2.63731 9774 ft 291 kts 282°
2026-05-05 20:34 48.29314 2.60827 9528 ft 282 kts 282°
2026-05-05 20:34 48.29768 2.58004 9259 ft 275 kts 282°
2026-05-05 20:35 48.30206 2.55231 8997 ft 274 kts 282°
2026-05-05 20:35 48.30630 2.52423 8739 ft 277 kts 282°
2026-05-05 20:35 48.31048 2.49593 8484 ft 278 kts 282°
2026-05-05 20:35 48.31465 2.46747 8227 ft 279 kts 282°
2026-05-05 20:36 48.31879 2.43893 7975 ft 280 kts 282°
2026-05-05 20:36 48.32287 2.41046 7721 ft 277 kts 282°
2026-05-05 20:36 48.32685 2.38240 7465 ft 272 kts 282°
2026-05-05 20:36 48.33076 2.35470 7215 ft 271 kts 282°
2026-05-05 20:37 48.33462 2.32707 6976 ft 269 kts 282°
2026-05-05 20:37 48.33844 2.29942 6876 ft 273 kts 282°
2026-05-05 20:37 48.34224 2.27168 6839 ft 275 kts 282°
2026-05-05 20:37 48.34605 2.24378 6837 ft 271 kts 282°
2026-05-05 20:38 48.34979 2.21624 6837 ft 268 kts 282°
2026-05-05 20:38 48.35352 2.18878 6839 ft 268 kts 282°
2026-05-05 20:38 48.35725 2.16129 6844 ft 269 kts 282°
2026-05-05 20:38 48.36097 2.13375 6832 ft 270 kts 282°
2026-05-05 20:39 48.36455 2.10585 6818 ft 274 kts 282°
2026-05-05 20:39 48.36815 2.07751 6801 ft 276 kts 284°
2026-05-05 20:39 48.37663 2.05237 6573 ft 269 kts 316°
2026-05-05 20:39 48.39252 2.03949 6354 ft 260 kts 351°
2026-05-05 20:40 48.41027 2.04005 6168 ft 253 kts
2026-05-05 20:40 48.42781 2.04120 5945 ft 252 kts
2026-05-05 20:40 48.44525 2.03998 5721 ft 250 kts 355°
2026-05-05 20:40 48.46234 2.03550 5495 ft 249 kts 349°
2026-05-05 20:41 48.47923 2.02969 5237 ft 249 kts 349°
2026-05-05 20:41 48.49604 2.02382 4989 ft 248 kts 349°
2026-05-05 20:41 48.51289 2.01807 4730 ft 248 kts 349°
2026-05-05 20:41 48.52963 2.01249 4489 ft 244 kts 349°
2026-05-05 20:42 48.54610 2.00707 4220 ft 240 kts 349°
2026-05-05 20:42 48.56229 2.00448 4039 ft 230 kts 12°
2026-05-05 20:42 48.57614 2.01480 4031 ft 220 kts 33°
2026-05-05 20:42 48.58888 2.02706 4018 ft 215 kts 32°
2026-05-05 20:43 48.60122 2.03858 4026 ft 201 kts 31°
2026-05-05 20:43 48.61291 2.04938 4031 ft 196 kts 31°
2026-05-05 20:43 48.62459 2.06018 4032 ft 197 kts 33°
2026-05-05 20:43 48.63396 2.07518 3935 ft 200 kts 56°
2026-05-05 20:44 48.64113 2.09334 3688 ft 201 kts 57°
2026-05-05 20:44 48.64787 2.11148 3433 ft 195 kts 59°
2026-05-05 20:44 48.65421 2.12938 3154 ft 191 kts 59°
2026-05-05 20:44 48.66038 2.14699 2904 ft 186 kts 58°
2026-05-05 20:45 48.67168 2.17927 2453 ft 167 kts 58°
2026-05-05 20:45 48.67700 2.19445 2222 ft 160 kts 58°
2026-05-05 20:45 48.68207 2.20892 2011 ft 148 kts 56°
2026-05-05 20:46 48.68656 2.22175 1825 ft 129 kts 55°
2026-05-05 20:46 48.69045 2.23283 1666 ft 113 kts 54°
2026-05-05 20:46 48.69408 2.24308 1505 ft 111 kts 55°
2026-05-05 20:46 48.69779 2.25359 1346 ft 116 kts 57°
2026-05-05 20:47 48.70162 2.26452 1176 ft 119 kts 59°
2026-05-05 20:47 48.70546 2.27552 1019 ft 116 kts 58°
2026-05-05 20:47 48.70925 2.28622 886 ft 115 kts 57°
2026-05-05 20:47 48.71299 2.29677 689 ft 113 kts 59°
2026-05-05 20:48 48.71664 2.30736 538 ft 117 kts 59°
2026-05-05 20:48 48.72042 2.31823 382 ft 114 kts 57°
2026-05-05 20:48 48.72402 2.32827 303 ft 97 kts 62°
2026-05-05 20:48 48.72646 2.33523 304 ft 53 kts 62°
2026-05-05 20:49 48.72758 2.33912 302 ft 36 kts 79°
2026-05-05 20:49 48.72790 2.34237 299 ft 25 kts 81°
2026-05-05 20:49 48.72813 2.34484 299 ft 23 kts 81°
2026-05-05 20:49 48.72835 2.34707 303 ft 21 kts 82°
2026-05-05 20:50 48.72855 2.34910 302 ft 19 kts 81°
2026-05-05 20:50 48.72873 2.35105 303 ft 18 kts 82°
2026-05-05 20:50 48.72890 2.35293 302 ft 17 kts 82°
2026-05-05 20:50 48.72872 2.35418 301 ft 11 kts 146°
2026-05-05 20:51 48.72800 2.35454 302 ft 11 kts 165°
2026-05-05 20:51 48.72728 2.35484 299 ft 11 kts 164°
2026-05-05 20:51 48.72639 2.35522 300 ft 17 kts 165°
2026-05-05 20:51 48.72519 2.35574 301 ft 17 kts 164°
2026-05-05 20:52 48.72459 2.35653 304 ft 11 kts 94°
2026-05-05 20:52 48.72477 2.35764 305 ft 11 kts 79°
2026-05-05 20:52 48.72472 2.35884 302 ft 14 kts 95°
2026-05-05 20:52 48.72473 2.36040 300 ft 15 kts 79°
2026-05-05 20:53 48.72499 2.36189 300 ft 14 kts 72°
2026-05-05 20:53 48.72524 2.36331 302 ft 14 kts 76°
2026-05-05 20:53 48.72549 2.36467 305 ft 13 kts 75°
2026-05-05 20:53 48.72574 2.36597 300 ft 13 kts 71°
2026-05-05 20:54 48.72606 2.36720 300 ft 12 kts 69°
2026-05-05 20:54 48.72627 2.36778 303 ft 3 kts 25°
2026-05-05 20:54 48.72647 2.36787 300 ft 3 kts 17°
2026-05-05 20:54 48.72671 2.36801 303 ft 5 kts 22°
2026-05-05 20:55 48.72703 2.36821 300 ft 5 kts 22°
2026-05-05 20:55 48.72726 2.36836 300 ft 2 kts 22°
2026-05-05 20:55 48.72731 2.36839 300 ft 0 kts 22°